Hourly Weather Sydney

Today, 27 September, Sunday

Time Temperature Precipitation Wind Pressure Humidity
00:00 +8°C° 0 mm 5 mps 762 mmHg 60%
01:00 +7°C° 0 mm 6 mps 762 mmHg 61%
02:00 +7°C° 0 mm 6 mps 762 mmHg 62%
03:00 +7°C° 0 mm 6 mps 763 mmHg 63%
04:00 +7°C° 0 mm 6 mps 762 mmHg 64%
05:00 +8°C° 0 mm 6 mps 763 mmHg 62%
06:00 +8°C° 0 mm 6 mps 763 mmHg 59%
07:00 +9°C° 0 mm 5 mps 764 mmHg 56%
08:00 +12°C° 0 mm 5 mps 764 mmHg 49%
09:00 +14°C° 0 mm 5 mps 765 mmHg 42%
10:00 +18°C° 0 mm 4 mps 765 mmHg 32%
11:00 +17°C° 0 mm 5 mps 765 mmHg 34%
12:00 +17°C° 0 mm 6 mps 765 mmHg 35%
13:00 +17°C° 0 mm 6 mps 765 mmHg 37%
14:00 +16°C° 0 mm 7 mps 765 mmHg 40%
15:00 +16°C° 0 mm 7 mps 765 mmHg 43%
16:00 +15°C° 0 mm 6 mps 765 mmHg 49%
17:00 +14°C° 0 mm 5 mps 766 mmHg 53%
18:00 +13°C° 0 mm 5 mps 767 mmHg 57%
19:00 +12°C° 0 mm 4 mps 768 mmHg 61%
20:00 +12°C° 0 mm 4 mps 768 mmHg 61%
21:00 +12°C° 0 mm 3 mps 768 mmHg 62%
22:00 +12°C° 0 mm 3 mps 769 mmHg 62%
23:00 +13°C° 0 mm 2 mps 769 mmHg 65%

Tomorrow, 28 September, Monday

Time Temperature Precipitation Wind Pressure Humidity
00:00 +12°C° 0 mm 2 mps 769 mmHg 68%
01:00 +12°C° 0 mm 2 mps 769 mmHg 71%
02:00 +10°C° 0 mm 2 mps 769 mmHg 73%
03:00 +10°C° 0 mm 1 mps 769 mmHg 76%
04:00 +10°C° 0 mm 1 mps 769 mmHg 78%
05:00 +10°C° 0 mm 1 mps 769 mmHg 75%
06:00 +10°C° 0 mm 2 mps 769 mmHg 72%
07:00 +12°C° 0 mm 2 mps 769 mmHg 68%
08:00 +14°C° 0 mm 2 mps 769 mmHg 59%
09:00 +16°C° 0 mm 1 mps 769 mmHg 50%
10:00 +19°C° 0 mm 1 mps 769 mmHg 41%
11:00 +20°C° 0 mm 2 mps 768 mmHg 36%
12:00 +21°C° 0 mm 2 mps 768 mmHg 31%
13:00 +24°C° 0 mm 3 mps 767 mmHg 26%
14:00 +22°C° 0 mm 4 mps 767 mmHg 31%
15:00 +21°C° 0 mm 4 mps 767 mmHg 36%
16:00 +20°C° 0 mm 5 mps 766 mmHg 41%
17:00 +17°C° 0 mm 5 mps 767 mmHg 49%
18:00 +15°C° 0 mm 4 mps 767 mmHg 57%
19:00 +14°C° 0 mm 3 mps 768 mmHg 64%
20:00 +13°C° 0 mm 3 mps 768 mmHg 67%
21:00 +14°C° 0 mm 2 mps 769 mmHg 69%
22:00 +13°C° 0 mm 1 mps 769 mmHg 71%
23:00 +13°C° 0 mm 1 mps 769 mmHg 74%

Day after tomorrow, 29 September, Tuesday

Time Temperature Precipitation Wind Pressure Humidity
00:00 +12°C° 0 mm 1 mps 769 mmHg 76%
01:00 +12°C° 0 mm 1 mps 768 mmHg 78%
02:00 +11°C° 0 mm 1 mps 768 mmHg 80%
03:00 +11°C° 0 mm 1 mps 768 mmHg 82%
04:00 +11°C° 0 mm 1 mps 768 mmHg 84%
05:00 +11°C° 0 mm 1 mps 768 mmHg 81%
06:00 +12°C° 0 mm 1 mps 769 mmHg 78%
07:00 +12°C° 0 mm 1 mps 769 mmHg 75%
08:00 +15°C° 0 mm 1 mps 769 mmHg 64%
09:00 +19°C° 0 mm 1 mps 769 mmHg 54%
10:00 +21°C° 0 mm 1 mps 768 mmHg 44%
11:00 +21°C° 0 mm 2 mps 768 mmHg 41%
12:00 +22°C° 0 mm 3 mps 767 mmHg 39%
13:00 +22°C° 0 mm 4 mps 766 mmHg 36%
14:00 +22°C° 0 mm 5 mps 766 mmHg 40%
15:00 +21°C° 0 mm 5 mps 766 mmHg 44%
16:00 +20°C° 0 mm 6 mps 765 mmHg 48%
17:00 +17°C° 0 mm 6 mps 766 mmHg 54%
18:00 +16°C° 0 mm 5 mps 766 mmHg 61%
19:00 +15°C° 0 mm 5 mps 766 mmHg 67%
20:00 +14°C° 0 mm 5 mps 766 mmHg 69%
21:00 +14°C° 0 mm 5 mps 766 mmHg 71%
22:00 +13°C° 0 mm 4 mps 766 mmHg 73%
23:00 +13°C° 0 mm 4 mps 766 mmHg 73%

30 September, Wednesday

Time Temperature Precipitation Wind Pressure Humidity
00:00 +12°C° 0 mm 4 mps 765 mmHg 73%
01:00 +12°C° 0 mm 3 mps 765 mmHg 73%
02:00 +11°C° 0 mm 3 mps 765 mmHg 75%
03:00 +11°C° 0 mm 3 mps 764 mmHg 76%
04:00 +11°C° 0 mm 3 mps 764 mmHg 78%
05:00 +11°C° 0 mm 3 mps 764 mmHg 75%
06:00 +12°C° 0 mm 4 mps 764 mmHg 71%
07:00 +12°C° 0 mm 4 mps 764 mmHg 68%
08:00 +14°C° 0 mm 4 mps 764 mmHg 62%
09:00 +17°C° 0 mm 4 mps 764 mmHg 55%
10:00 +18°C° 0 mm 4 mps 763 mmHg 49%
11:00 +20°C° 0 mm 4 mps 763 mmHg 44%
12:00 +22°C° 0 mm 5 mps 762 mmHg 39%
13:00 +25°C° 0 mm 5 mps 761 mmHg 35%
14:00 +21°C° 0.6 mm 4 mps 761 mmHg 49%
15:00 +19°C° 0.6 mm 3 mps 761 mmHg 63%
16:00 +16°C° 0.6 mm 2 mps 761 mmHg 78%
17:00 +16°C° 0.1 mm 3 mps 761 mmHg 79%
18:00 +15°C° 0.1 mm 5 mps 761 mmHg 81%
19:00 +14°C° 0.1 mm 6 mps 761 mmHg 83%
20:00 +14°C° 0 mm 6 mps 761 mmHg 83%
21:00 +14°C° 0 mm 6 mps 761 mmHg 83%
22:00 +14°C° 0 mm 6 mps 760 mmHg 83%
23:00 +14°C° 0 mm 6 mps 760 mmHg 83%

1 October, Thursday

Time Temperature Precipitation Wind Pressure Humidity
00:00 +14°C° 0 mm 6 mps 759 mmHg 84%
01:00 +14°C° 0 mm 6 mps 759 mmHg 84%
02:00 +14°C° 0.3 mm 6 mps 759 mmHg 85%
03:00 +14°C° 0.3 mm 6 mps 758 mmHg 86%
04:00 +14°C° 0.3 mm 6 mps 758 mmHg 87%
05:00 +15°C° 0.4 mm 5 mps 759 mmHg 86%
06:00 +15°C° 0.4 mm 5 mps 759 mmHg 86%
07:00 +15°C° 0.4 mm 4 mps 760 mmHg 86%
08:00 +18°C° 0.1 mm 4 mps 760 mmHg 74%
09:00 +21°C° 0.1 mm 3 mps 760 mmHg 62%
10:00 +24°C° 0.1 mm 3 mps 760 mmHg 50%
11:00 +25°C° 0 mm 3 mps 760 mmHg 44%
12:00 +27°C° 0 mm 4 mps 760 mmHg 39%
13:00 +28°C° 0 mm 4 mps 759 mmHg 33%
14:00 +26°C° 0 mm 4 mps 760 mmHg 43%
15:00 +23°C° 0 mm 4 mps 760 mmHg 53%
16:00 +21°C° 0 mm 5 mps 760 mmHg 63%
17:00 +20°C° 0 mm 4 mps 761 mmHg 71%
18:00 +18°C° 0 mm 3 mps 762 mmHg 78%
19:00 +17°C° 0 mm 2 mps 763 mmHg 86%
20:00 +16°C° 0 mm 2 mps 763 mmHg 87%
21:00 +16°C° 0 mm 1 mps 764 mmHg 88%
22:00 +16°C° 0 mm 1 mps 764 mmHg 90%
23:00 +15°C° 0 mm 1 mps 764 mmHg 90%

2 October, Friday

Time Temperature Precipitation Wind Pressure Humidity
00:00 +15°C° 0 mm 1 mps 764 mmHg 91%
01:00 +14°C° 0 mm 2 mps 764 mmHg 91%
02:00 +14°C° 0 mm 2 mps 764 mmHg 91%
03:00 +14°C° 0 mm 2 mps 765 mmHg 90%
04:00 +12°C° 0 mm 3 mps 765 mmHg 90%
05:00 +13°C° 0 mm 3 mps 765 mmHg 84%
06:00 +13°C° 0 mm 3 mps 766 mmHg 78%
07:00 +14°C° 0 mm 3 mps 766 mmHg 73%
08:00 +18°C° 0 mm 2 mps 766 mmHg 60%
09:00 +21°C° 0 mm 2 mps 766 mmHg 47%
10:00 +25°C° 0 mm 2 mps 766 mmHg 35%
11:00 +27°C° 0 mm 3 mps 766 mmHg 29%
12:00 +29°C° 0 mm 3 mps 765 mmHg 24%
13:00 +31°C° 0 mm 3 mps 765 mmHg 19%
14:00 +30°C° 0 mm 4 mps 765 mmHg 23%
15:00 +29°C° 0 mm 5 mps 765 mmHg 28%
16:00 +29°C° 0 mm 5 mps 765 mmHg 33%
17:00 +26°C° 0 mm 5 mps 765 mmHg 46%
18:00 +23°C° 0 mm 5 mps 766 mmHg 58%
19:00 +20°C° 0 mm 4 mps 766 mmHg 70%
20:00 +19°C° 0 mm 4 mps 767 mmHg 73%
21:00 +19°C° 0 mm 3 mps 767 mmHg 76%
22:00 +18°C° 0 mm 3 mps 767 mmHg 79%
23:00 +18°C° 0 mm 3 mps 767 mmHg 79%
Show more